Content
SEND FEEDBACK

Daily
Averages
Monthly
Summary
Philippines

OLONGAPO, PHILIPPINES


Home > Asia > Philippines
Elevation: 55 feet     Latitude: 14 48N     Longitude: 120 16E

WEATHER
 
SELECT A DAY
Number of Records: 135,135;   Date Range: 7/31/96 - 9/3/14
 
SHARE

PRINT THIS DATA

[ ← Previous Day ]
WEATHER ALMANAC - SEPTEMBER 28, 2013
[ Next Day → ]
[ °C ]   °F
Weather ElementAverageHighLow
Temperature80.2 °F89.6 °F (1:00 pm)77 °F (2:00 am)
Dewpoint73.8 °F77 °F (10:00 am)72 °F (2:00 am)
Humidity79.9 %94 % (8:00 pm)58 % (11:00 am)
Barometer29.70 in29.74 in (9:00 am)29.65 in (1:00 pm)
Wind Speed5.9 mph16.1 mph (3:00 pm)
Weather ElementAverage
Visibility6.8 mi
Wind DirectionESE (106.3 °)

Weather ElementTotal
Precipitation---
Cooling Degree Days18.3 (Base 65)
Growing Degree Days33.3 (Base 50)
Averaged from 27 records on September 28, 2013
WEATHER CONDITIONS BREAKOUT
WIND DIRECTION BREAKOUT
WEATHER BY HOUR - SEPTEMBER 28, 2013
[ °C ]   °F
Local TimeTemperatureDewpointHumidityBarometerVisibilityWind DirectionWind SpeedGust SpeedPrecipitationEventsConditions
2:00 AM77.0 °F72.0 °F80 %29.72 in6.0 miSouth (180°)2.2 mphHaze
5:00 AM78.0 °F73.0 °F80 %29.70 in9.0 miSouth (180°)11.2 mphHaze
5:00 AM78.8 °F73.4 °F83 %29.68 in6.2 miSouth (180°)11.5 mphMostly Cloudy
6:00 AM78.8 °F73.4 °F83 %29.68 in6.2 miSSE (160°)8.1 mphMostly Cloudy
7:00 AM78.8 °F73.4 °F83 %29.71 in6.2 miSE (140°)4.6 mphMostly Cloudy
8:00 AM80.0 °F74.0 °F77 %29.73 in9.0 miSouth (180°)4.5 mphHaze
8:00 AM80.6 °F73.4 °F79 %29.71 in6.2 miVariable3.5 mphMostly Cloudy
9:00 AM78.8 °F73.4 °F83 %29.74 in6.2 miVariable2.3 mphMostly Cloudy
10:00 AM84.2 °F77.0 °F79 %29.71 in6.2 miVariable2.3 mphMostly Cloudy
11:00 AM87.0 °F74.0 °F58 %29.71 in12.0 miSouth (180°)8.9 mphHaze
11:00 AM86.0 °F75.2 °F70 %29.71 in6.2 miSouth (180°)8.1 mphScattered Clouds
12:00 PM87.8 °F73.4 °F62 %29.68 in6.2 miSouth (180°)4.6 mphPartly Cloudy
1:00 PM89.6 °F73.4 °F59 %29.65 in6.2 miSSE (160°)9.2 mphPartly Cloudy
2:00 PM86.0 °F73.4 °F66 %29.65 in6.2 miSW (230°)13.8 mphMostly Cloudy
2:00 PM77.0 °F29.65 in12.0 miNNE (30°)4.5 mphHaze
3:00 PM78.8 °F75.2 °F89 %29.65 in5.0 miSSW (200°)16.1 mphOvercast
4:00 PM80.6 °F73.4 °F79 %29.65 in6.2 miSSE (160°)9.2 mphRainLight Rain Showers
5:00 PM79.0 °F73.0 °F77 %29.67 in7.0 miEast (80°)4.5 mphRainLight Rain Showers
5:00 PM78.8 °F73.4 °F83 %29.65 in6.2 miEast (80°)4.6 mphMostly Cloudy
6:00 PM77.0 °F73.4 °F89 %29.71 in5.0 miEast (80°)4.6 mphRainLight Rain
7:00 PM77.0 °F73.4 °F89 %29.71 in6.2 miEast (80°)3.5 mphOvercast
8:00 PM78.0 °F74.0 °F85 %29.72 in6.0 miENE (60°)4.5 mphRainLight Rain
8:00 PM77.0 °F75.2 °F94 %29.71 in6.2 miENE (60°)4.6 mphRainLight Rain
9:00 PM77.0 °F73.4 °F89 %29.74 in6.2 miCalmOvercast
10:00 PM77.0 °F73.4 °F89 %29.74 in6.2 miCalmOvercast
11:00 PM77.0 °F73.0 °F83 %29.73 in7.0 miEast (90°)4.5 mphHaze
11:00 PM77.0 °F73.4 °F89 %29.71 in6.2 miVariable3.5 mphOvercast
Hourly data recorded from RPLB, located miles away from Olongapo, Philippines







STORIES FROM OUR PARTNERS